Flag for Netherlands Weather past 2 weeks in Enschede, Netherlands

Now
64 °F

Thunderstorms. Broken clouds.


Feels Like: 64 °F
Forecast: 62 / 79 °F
Wind: 8 mph from North

Location: Deelen

Current Time: Jul 28, 2014 at 5:09:44 PM

Latest Report: Jul 28, 2014 at 4:25 PM


Visibility: N/A

Pressure: 29.86 "Hg

Humidity: 94%

Dew point: 63 °F

Location of EnschedeLocation

Historic Weather in Enschede — Graph

°F

Enschede temperature yesterday

Maximum temperature yesterday: 79 °F (at 4:25 PM)
Minimum temperature yesterday: 59 °F (at 2:55 AM)
Average temperature yesterday: 69 °F

Past Weeks' High & Low Weather Summary

 TemperatureHumidityPressure
High93 °F (Jul 19, 5:25 PM)100% (Jul 15, 12:25 AM)30.18 "Hg (Jul 15, 12:25 AM)
Low54 °F (Jul 16, 5:25 AM)26% (Jul 19, 2:25 PM)29.71 "Hg (Jul 13, 3:55 PM)
Average69 °F77%29.98 "Hg
* Reported Jul 13 3:25 PM — Jul 28 3:55 PM, Enschede, Weather by CustomWeather, © 2014

Note: Actual official high and low records may vary slightly from our data, if they occured in-between our weather recording intervals... More about our weather records

Advertising

Enschede weather history for previous 24 hours

 ConditionsComfort  
Time TempWeatherWind HumidityBarometerVisibility
3:55 PM
Jul 28
64 °FThunderstorms. Partly sunny.8 mph94%29.89 "HgN/A
3:25 PM64 °FThunderstorms. Broken clouds.15 mph100%29.86 "HgN/A
2:55 PM63 °FStrong thunderstorms. Mostly cloudy.18 mph100%29.89 "Hg1 mi
2:25 PM64 °FThunderstorms. Broken clouds.16 mph94%29.83 "HgN/A
1:55 PM59 °FStrong thunderstorms. Broken clouds.20 mph94%29.89 "Hg0 mi
1:25 PM72 °FThunderstorms. Broken clouds.12 mph83%29.86 "Hg5 mi
12:55 PM73 °FThunderstorms. Broken clouds.13 mph78%29.83 "HgN/A
12:25 PM75 °FBroken clouds.14 mph69%29.86 "HgN/A
11:55 AM75 °FScattered clouds.14 mph69%29.86 "HgN/A
11:25 AM73 °FBroken clouds.10 mph78%29.89 "HgN/A
10:55 AM72 °FBroken clouds.13 mph78%29.89 "HgN/A
10:25 AM70 °FFog.12 mph88%29.89 "Hg5 mi
9:55 AM70 °FFog.12 mph83%29.89 "Hg4 mi
9:25 AM68 °FFog.12 mph88%29.89 "Hg4 mi
8:55 AM66 °FFog.12 mph94%29.89 "Hg3 mi
8:25 AM66 °FFog.10 mph94%29.89 "Hg3 mi
7:55 AM64 °FFog.10 mph100%29.92 "Hg3 mi
7:25 AM64 °FFog.9 mph94%29.92 "Hg2 mi
6:55 AM64 °FFog.10 mph94%29.92 "Hg3 mi
6:25 AM64 °FFog.8 mph94%29.92 "Hg3 mi
5:55 AM64 °FFog.5 mph94%29.92 "Hg3 mi
5:25 AM64 °FFog.5 mph94%29.92 "Hg3 mi
4:55 AM64 °FFog.7 mph94%29.92 "Hg2 mi
4:25 AM64 °FFog.8 mph94%29.95 "Hg2 mi
3:55 AM64 °FFog.7 mph100%29.95 "Hg2 mi
3:25 AM64 °FPartly cloudy.6 mph100%29.95 "Hg2 mi
2:55 AM64 °FPartly cloudy.7 mph100%29.95 "Hg3 mi
2:25 AM64 °FLight rain. Partly cloudy.5 mph100%29.95 "Hg2 mi
1:55 AM64 °FRain showers. Partly cloudy.2 mph100%29.98 "Hg2 mi
1:25 AM64 °FSprinkles. Mostly cloudy.No wind100%29.98 "Hg4 mi
12:55 AM66 °FFog.5 mph94%29.98 "Hg5 mi
12:25 AM66 °FOvercast.2 mph94%29.98 "HgN/A
11:55 PM
Jul 27
66 °FFog.5 mph94%29.98 "Hg5 mi
11:25 PM66 °FOvercast.2 mph94%29.98 "HgN/A
10:55 PM66 °FOvercast.5 mph94%29.98 "HgN/A
10:25 PM66 °FBroken clouds.6 mph94%29.98 "HgN/A
9:55 PM68 °FThunderstorms. Broken clouds.8 mph88%29.98 "HgN/A
9:25 PM72 °FOvercast.7 mph73%29.98 "HgN/A
8:55 PM72 °FThunderstorms. Broken clouds.3 mph78%29.98 "HgN/A
8:25 PM73 °FPassing clouds.3 mph74%29.95 "HgN/A
7:55 PM73 °FCloudy.2 mph74%29.95 "HgN/A
7:25 PM73 °FDrizzle. Broken clouds.6 mph74%29.95 "HgN/A
6:55 PM75 °FPassing clouds.5 mph65%29.95 "HgN/A
6:25 PM77 °FOvercast.5 mph61%29.95 "HgN/A
5:55 PM77 °FOvercast.6 mph57%29.95 "HgN/A
5:25 PM79 °FPartly sunny.5 mph54%29.98 "HgN/A
Weather by CustomWeather, © 2014

See weather overviewHow to use our weather pages